Regional Weather Roundup
Issued by NWS

Home | Current Version | Previous Version | Text Only | Print | Product List | Glossary Off
Versions: 1 2 3 4 5 6 7 8 9 10 11 12 13 14 15 16 17 18 19 20 21 22 23 24 25 26 27 28 29 30 31 32 33 34 35 36 37 38 39 40 41 42 43 44 45 46 47 48 49 50

000
ASUS43 KOAX 301802
RWRNE

WEATHER ROUNDUP FOR NEBRASKA
NATIONAL WEATHER SERVICE OMAHA NE
100 PM CDT SAT JUL 30 2016

NOTES: SATELLITE DATA IS BEING USED TO AUGMENT CLOUD COVER ABOVE
       12000 FEET.
       "FAIR" INDICATES FEW OR NO CLOUDS BELOW 12,000 FEET WITH NO
       SIGNIFICANT WEATHER AND/OR OBSTRUCTIONS TO VISIBILITY.

  * THESE STATIONS DO NOT REPORT WEATHER SUCH AS RAIN...SNOW OR FOG.

NEZ001>004-019>022-054>056-301900-
NEBRASKA PANHANDLE

CITY           SKY/WX    TMP DP  RH WIND       PRES   REMARKS
SCOTTSBLUFF    SUNNY     80  65  59 E10       29.99F
6HR MIN TEMP:  59; 6HR MAX TEMP:  81; 6HR PCP: TRACE;

ALLIANCE       SUNNY     81  59  47 MISG      29.99F
6HR MIN TEMP:  56; 6HR MAX TEMP:  82;

CHADRON        SUNNY     87  60  40 SW9       29.93F
6HR MIN TEMP:  57; 6HR MAX TEMP:  87;

SIDNEY         SUNNY     83  60  45 E10       30.04S
6HR MIN TEMP:  63; 6HR MAX TEMP:  83; 6HR PCP: TRACE;

$$

NEZ057>060-069>072-079>082-301900-
SOUTHWEST NEBRASKA

CITY           SKY/WX    TMP DP  RH WIND       PRES   REMARKS
NORTH PLATTE   CLOUDY    75  67  76 SE15      30.00S
6HR MIN TEMP:  61; 6HR MAX TEMP:  76;

IMPERIAL       SUNNY     81  60  48 VRB6      29.99F
6HR MIN TEMP:  63; 6HR MAX TEMP:  82;

LEXINGTON      MOSUNNY   75  67  75 SE10G16   30.00F
MCCOOK         SUNNY     87  62  43 VRB7      29.97F
6HR MIN TEMP:  65; 6HR MAX TEMP:  87;

OGALLALA       MOSUNNY   82  62  50 SE10      29.99F
$$

NEZ005>010-023>029-035>040-094-301900-
NORTH CENTRAL NEBRASKA

CITY           SKY/WX    TMP DP  RH WIND       PRES   REMARKS
VALENTINE      SUNNY     81  63  54 S12       29.96F
6HR MIN TEMP:  66; 6HR MAX TEMP:  81;

AINSWORTH      MOSUNNY   79  66  65 S10G17    29.98F
BROKEN BOW     SUNNY     76  64  66 SE15      30.00F
6HR MIN TEMP:  63; 6HR MAX TEMP:  76; 6HR PCP: TRACE;

O`NEILL        MOSUNNY   79  65  61 SE8       29.99F
ORD            SUNNY     77  61  57 SE12      29.98F
6HR MIN TEMP:  63; 6HR MAX TEMP:  77; 6HR PCP:  0.43;

THEDFORD       SUNNY     79  66  64 SE13      29.99F
$$

NEZ041-046>049-061>064-073>077-083>087-301900-
SOUTH CENTRAL NEBRASKA

CITY           SKY/WX    TMP DP  RH WIND       PRES   REMARKS
GRAND ISLAND   SUNNY     74  64  71 SE10      30.01F
6HR MIN TEMP:  62; 6HR MAX TEMP:  74; 6HR PCP:  1.65;

AURORA         SUNNY     73  68  84 SE8       30.01F
HASTINGS       SUNNY     77  64  64 S7        30.02F
6HR MIN TEMP:  62; 6HR MAX TEMP:  77; 6HR PCP:  0.20;

HEBRON         PTSUNNY   73  64  74 E6        30.02F
HOLDREGE       SUNNY     77  67  71 SE13G18   30.00F
KEARNEY *      SUNNY     77  66  69 SE10      30.01F
YORK           PTSUNNY   72  64  78 S5        30.03S
$$

NEZ011>018-030>034-042>045-301900-
NORTHEAST NEBRASKA

CITY           SKY/WX    TMP DP  RH WIND       PRES   REMARKS
NORFOLK        PTSUNNY   75  63  66 S14       30.02S
6HR MIN TEMP:  60; 6HR MAX TEMP:  77;

ALBION         PTSUNNY   73  65  75 SE8       30.01F
BLAIR          CLOUDY    74  67  77 SE7       30.03S
FREMONT        CLOUDY    74  64  70 E9        30.03F
TEKAMAH        CLOUDY    77  65  66 VRB6      30.02F
6HR MIN TEMP:  58; 6HR MAX TEMP:  78;

WAYNE          PTSUNNY   76  65  69 SE8       30.02F
$$

NEZ050>053-065>068-078-088>093-301900-
SOUTHEAST NEBRASKA

CITY           SKY/WX    TMP DP  RH WIND       PRES   REMARKS
LINCOLN        PTSUNNY   72  67  84 E10       30.02F
6HR MIN TEMP:  62; 6HR MAX TEMP:  72; 6HR PCP:  0.03;

OMAHA EPPLEY   CLOUDY    75  64  68 SE7       30.03S
6HR MIN TEMP:  61; 6HR MAX TEMP:  75;

BEATRICE       TSTM      67  65  94 E7        29.99F
FALLS CITY     CLOUDY    79  66  64 E6        30.02F
6HR MIN TEMP:  61; 6HR MAX TEMP:  80;

NEBRASKA CITY  CLOUDY    73  65  77 SE3       30.04S
PLATTSMOUTH    PTSUNNY   73  66  78 SE7       30.04S
$$

NEZ044-045-051>053-067-301900-
OMAHA AREA

CITY           SKY/WX    TMP DP  RH WIND       PRES   REMARKS
OMAHA EPPLEY   CLOUDY    75  64  68 SE7       30.03S
6HR MIN TEMP:  61; 6HR MAX TEMP:  75;

BLAIR          CLOUDY    74  67  77 SE7       30.03S
FREMONT        CLOUDY    74  64  70 E9        30.03F
OFFUTT AFB     PTSUNNY   75  65  73 E7        30.02F
PLATTSMOUTH    PTSUNNY   73  66  78 SE7       30.04S
WAHOO          FAIR      75  65  71 SE8       30.02F
$$




USA.gov is the U.S. government's official web portal to all federal, state and local government web resources and services.